Language: 


Des rapports , des résumés tant et plus, au choix de chacun....


Données statistiques de la station
Quotidien Rapport Décembre 22, 2017 Unités:  Métrique    Anglais   les deux
« Précédent Jour
Suivant Jour »
Quotidien Hebdomadaire Mensuel Annuel Actuel
  Haut: Bas: Moyen:
Température: -17.8 °C -12.8 °C -12.3 °C
Pt de rosée: -17.8 °C -12.8 °C -12.2 °C
Humidité: Humidity % 98 % 98 %
Vitesse du vent: 0 km/h 0 km/h 2.3 km/h
Rafales: 0 km/h - -
Vent:- - West
Pression: 0 hPa 34946.9 hPa -
Précipitation: 0 mm    
Historical Graphs
 
 
Données statistiques pour Décembre 22, 2017
Heure Température Point de rosée Pression Vent Vitesse du vent Refales Humidité Pluie (taux horaire)
-17.8 °C -17.8 °C 0 hPa Calm     Humidity % 0 mm
00:01 -11.9 °C -11.7 °C 35014.6 hPa Calm   19.6 km/h 98 % 0 mm
00:03 -11.9 °C -11.7 °C 35014.6 hPa WSW 12.7 km/h 19.6 km/h 98 % 0 mm
00:07 -11.9 °C -11.7 °C 35014.6 hPa West 12.7 km/h 20.9 km/h 98 % 0 mm
00:09 -11.9 °C -11.7 °C 35014.6 hPa WSW 14.5 km/h 20.9 km/h 98 % 0 mm
00:14 -11.9 °C -11.7 °C 35014.6 hPa WSW 19.2 km/h 20.9 km/h 98 % 0 mm
00:19 -12 °C -12.2 °C 35014.6 hPa WSW 17.4 km/h 19.6 km/h 98 % 0 mm
00:20 -12 °C -12.2 °C 35014.6 hPa WSW 15.6 km/h 19.6 km/h 98 % 0 mm
00:21 -12 °C -12.2 °C 35014.6 hPa West 15 km/h 19.6 km/h 98 % 0 mm
00:25 -12 °C -12.2 °C 35014.6 hPa WSW 14 km/h 22.5 km/h 98 % 0 mm
00:30 -12 °C -12.2 °C 35014.6 hPa WSW 22.5 km/h 22.5 km/h 98 % 0 mm
00:31 -12 °C -12.2 °C 35014.6 hPa WSW 14 km/h 22.5 km/h 98 % 0 mm
00:35 -12 °C -12.2 °C 35014.6 hPa Calm   22.5 km/h 98 % 0 mm
00:37 -12 °C -12.2 °C 35014.6 hPa Calm   22.5 km/h 98 % 0 mm
00:42 -12 °C -12.2 °C 34980.8 hPa Calm   19.6 km/h 98 % 0 mm
00:44 -12.1 °C -12.2 °C 34980.8 hPa West 10.3 km/h 17.9 km/h 98 % 0 mm
00:49 -12.1 °C -12.2 °C 34980.8 hPa Calm   12.2 km/h 98 % 0 mm
00:50 -12.1 °C -12.2 °C 34980.8 hPa Calm   12.2 km/h 98 % 0 mm
00:55 -12.1 °C -12.2 °C 35014.6 hPa Calm   10.3 km/h 98 % 0 mm
01:00 -12.1 °C -12.2 °C 35014.6 hPa Calm   17.9 km/h 98 % 0 mm
01:01 -12.1 °C -12.2 °C 35014.6 hPa Calm   17.9 km/h 98 % 0 mm
01:04 -12.1 °C -12.2 °C 35014.6 hPa West 9.3 km/h 19.2 km/h 98 % 0 mm
01:07 -12.1 °C -12.2 °C 35014.6 hPa Calm   19.2 km/h 98 % 0 mm
01:12 -12.1 °C -12.2 °C 34980.8 hPa Calm   19.2 km/h 98 % 0 mm
01:16 -12.2 °C -12.2 °C 34980.8 hPa WSW 11.1 km/h 16.3 km/h 98 % 0 mm
01:19 -12.2 °C -12.2 °C 34980.8 hPa West 15 km/h 16.3 km/h 98 % 0 mm
01:24 -12.2 °C -12.2 °C 34980.8 hPa WSW 8 km/h 16.3 km/h 98 % 0 mm
01:25 -12.2 °C -12.2 °C 35014.6 hPa WSW 4.2 km/h 15.6 km/h 98 % 0 mm
01:27 -12.2 °C -12.2 °C 35014.6 hPa West 6.4 km/h 15.6 km/h 98 % 0 mm
01:32 -12.2 °C -12.2 °C 35014.6 hPa Calm   15.6 km/h 98 % 0 mm
01:33 -12.2 °C -12.2 °C 35014.6 hPa Calm   15.6 km/h 98 % 0 mm
01:35 -12.2 °C -12.2 °C 35014.6 hPa West 3.4 km/h 15.6 km/h 98 % 0 mm
01:39 -12.2 °C -12.2 °C 35014.6 hPa Calm   12.2 km/h 98 % 0 mm
01:44 -12.2 °C -12.2 °C 34980.8 hPa Calm   10.3 km/h 98 % 0 mm
01:45 -12.2 °C -12.2 °C 34980.8 hPa Calm   10.3 km/h 98 % 0 mm
01:50 -12.3 °C -12.2 °C 34980.8 hPa Calm   14 km/h 98 % 0 mm
01:53 -12.3 °C -12.2 °C 34980.8 hPa WSW 10.3 km/h 14 km/h 98 % 0 mm
01:59 -12.3 °C -12.2 °C 34980.8 hPa West 4.2 km/h 16.9 km/h 98 % 0 mm
02:00 -12.3 °C -12.2 °C 34980.8 hPa Calm   16.9 km/h 98 % 0 mm
02:05 -12.3 °C -12.2 °C 34980.8 hPa West 4.2 km/h 16.9 km/h 98 % 0 mm
02:07 -12.3 °C -12.2 °C 34980.8 hPa Calm   12.7 km/h 98 % 0 mm
02:12 -12.3 °C -12.2 °C 34980.8 hPa Calm   11.1 km/h 98 % 0 mm
02:17 -12.3 °C -12.2 °C 34980.8 hPa WSW 11.1 km/h 16.3 km/h 98 % 0 mm
02:21 -12.3 °C -12.2 °C 34980.8 hPa Calm   16.3 km/h 98 % 0 mm
02:26 -12.3 °C -12.2 °C 34980.8 hPa WSW 16.3 km/h 16.9 km/h 98 % 0 mm
02:28 -12.3 °C -12.2 °C 34980.8 hPa WSW 15 km/h 16.9 km/h 98 % 0 mm
02:33 -12.3 °C -12.2 °C 34980.8 hPa Calm   20.3 km/h 98 % 0 mm
02:34 -12.3 °C -12.2 °C 34980.8 hPa Calm   20.3 km/h 98 % 0 mm
02:38 -12.3 °C -12.2 °C 34980.8 hPa West 14.5 km/h 20.3 km/h 98 % 0 mm
02:43 -12.3 °C -12.2 °C 34980.8 hPa SW 15 km/h 15 km/h 98 % 0 mm
02:44 -12.3 °C -12.2 °C 34980.8 hPa West 14.5 km/h 15 km/h 98 % 0 mm
02:49 -12.3 °C -12.2 °C 34980.8 hPa WSW 14.5 km/h 16.9 km/h 98 % 0 mm
02:50 -12.3 °C -12.2 °C 34980.8 hPa Calm   16.9 km/h 98 % 0 mm
02:55 -12.3 °C -12.2 °C 34980.8 hPa WSW 15.6 km/h 16.9 km/h 98 % 0 mm
02:59 -12.3 °C -12.2 °C 34980.8 hPa Calm   16.9 km/h 98 % 0 mm
03:01 -12.3 °C -12.2 °C 34980.8 hPa West 16.9 km/h 16.9 km/h 98 % 0 mm
03:04 -12.3 °C -12.2 °C 34980.8 hPa West 2.3 km/h 19.6 km/h 98 % 0 mm
03:09 -12.3 °C -12.2 °C 34980.8 hPa Calm   19.6 km/h 98 % 0 mm
03:13 -12.3 °C -12.2 °C 34946.9 hPa West 12.7 km/h 17.9 km/h 98 % 0 mm
03:17 -12.3 °C -12.2 °C 34946.9 hPa Calm   16.9 km/h 98 % 0 mm
03:18 -12.3 °C -12.2 °C 34946.9 hPa WSW 12.2 km/h 16.9 km/h 98 % 0 mm
03:23 -12.3 °C -12.2 °C 34946.9 hPa Calm   15.6 km/h 98 % 0 mm
03:25 -12.3 °C -12.2 °C 34946.9 hPa WSW 12.7 km/h 15.6 km/h 98 % 0 mm
03:30 -12.3 °C -12.2 °C 34980.8 hPa Calm   17.4 km/h 98 % 0 mm
03:31 -12.3 °C -12.2 °C 34980.8 hPa Calm   17.4 km/h 98 % 0 mm
03:36 -12.3 °C -12.2 °C 34980.8 hPa West 15.6 km/h 20.9 km/h 98 % 0 mm
03:37 -12.3 °C -12.2 °C 34980.8 hPa West 11.1 km/h 20.9 km/h 98 % 0 mm
03:38 -12.3 °C -12.2 °C 34980.8 hPa West 17.4 km/h 20.9 km/h 98 % 0 mm
03:42 -12.4 °C -12.2 °C 34980.8 hPa West 15 km/h 20.9 km/h 98 % 0 mm
03:47 -12.4 °C -12.2 °C 34980.8 hPa West 10.3 km/h 17.4 km/h 98 % 0 mm
03:52 -12.4 °C -12.2 °C 34980.8 hPa WSW 12.7 km/h 16.9 km/h 98 % 0 mm
03:54 -12.4 °C -12.2 °C 34980.8 hPa WSW 2.3 km/h 19.6 km/h 98 % 0 mm
03:59 -12.4 °C -12.2 °C 34980.8 hPa WSW 10.3 km/h 19.6 km/h 98 % 0 mm
04:01 -12.4 °C -12.2 °C 34980.8 hPa WSW 11.1 km/h 19.6 km/h 98 % 0 mm
04:06 -12.4 °C -12.2 °C 34980.8 hPa Calm   15.6 km/h 98 % 0 mm
04:08 -12.4 °C -12.2 °C 34980.8 hPa WSW 8 km/h 16.3 km/h 98 % 0 mm
04:12 -12.4 °C -12.2 °C 34980.8 hPa Calm   16.9 km/h 98 % 0 mm
04:23 -12.4 °C -12.2 °C 34980.8 hPa WSW 17.4 km/h 19.6 km/h 98 % 0 mm
04:28 -12.4 °C -12.2 °C 34980.8 hPa Calm   19.6 km/h 98 % 0 mm
04:32 -12.4 °C -12.2 °C 34980.8 hPa West 6.9 km/h 19.6 km/h 98 % 0 mm
04:37 -12.4 °C -12.2 °C 34980.8 hPa WSW 15.6 km/h 16.3 km/h 98 % 0 mm
04:42 -12.4 °C -12.2 °C 34980.8 hPa West 6.4 km/h 16.9 km/h 98 % 0 mm
04:47 -12.4 °C -12.2 °C 34980.8 hPa Calm   16.9 km/h 98 % 0 mm
04:51 -12.4 °C -12.2 °C 34980.8 hPa WSW 6.4 km/h 16.9 km/h 98 % 0 mm
04:52 -12.4 °C -12.2 °C 34980.8 hPa WSW 9.3 km/h 16.9 km/h 98 % 0 mm
04:57 -12.4 °C -12.2 °C 34980.8 hPa Calm   24.3 km/h 98 % 0 mm
04:59 -12.4 °C -12.2 °C 34980.8 hPa West 10.3 km/h 24.3 km/h 98 % 0 mm
05:05 -12.4 °C -12.2 °C 34980.8 hPa West 16.3 km/h 16.9 km/h 98 % 0 mm
05:06 -12.4 °C -12.2 °C 34980.8 hPa WSW 12.7 km/h 16.9 km/h 98 % 0 mm
05:12 -12.4 °C -12.2 °C 34980.8 hPa WSW 15 km/h 16.3 km/h 98 % 0 mm
05:17 -12.4 °C -12.2 °C 34980.8 hPa West 9.8 km/h 16.3 km/h 98 % 0 mm
05:20 -12.4 °C -12.2 °C 34980.8 hPa West 9.3 km/h 15.6 km/h 98 % 0 mm
05:24 -12.4 °C -12.2 °C 34980.8 hPa WSW 8.9 km/h 12.7 km/h 98 % 0 mm
05:25 -12.4 °C -12.2 °C 34980.8 hPa Calm   12.7 km/h 98 % 0 mm
05:30 -12.4 °C -12.2 °C 34980.8 hPa Calm   12.7 km/h 98 % 0 mm
05:36 -12.4 °C -12.2 °C 34980.8 hPa Calm   14 km/h 98 % 0 mm
05:41 -12.4 °C -12.2 °C 34980.8 hPa Calm   14 km/h 98 % 0 mm
05:46 -12.4 °C -12.2 °C 34980.8 hPa Calm   11.1 km/h 98 % 0 mm
05:51 -12.4 °C -12.2 °C 34980.8 hPa Calm   11.1 km/h 98 % 0 mm
05:52 -12.4 °C -12.2 °C 34980.8 hPa Calm   11.1 km/h 98 % 0 mm
05:57 -12.4 °C -12.2 °C 34980.8 hPa Calm   14 km/h 98 % 0 mm
06:01 -12.4 °C -12.2 °C 34980.8 hPa Calm   14 km/h 98 % 0 mm
06:06 -12.4 °C -12.2 °C 34980.8 hPa Calm     98 % 0 mm
06:07 -12.4 °C -12.2 °C 34980.8 hPa Calm     98 % 0 mm
06:12 -12.4 °C -12.2 °C 34980.8 hPa WSW 9.8 km/h 10.3 km/h 98 % 0 mm
06:14 -12.4 °C -12.2 °C 34980.8 hPa Calm   11.6 km/h 98 % 0 mm
06:19 -12.4 °C -12.2 °C 34980.8 hPa West 8 km/h 14.5 km/h 98 % 0 mm
06:21 -12.4 °C -12.2 °C 34980.8 hPa Calm   14.5 km/h 98 % 0 mm
06:29 -12.5 °C -12.2 °C 34980.8 hPa Calm   11.1 km/h 98 % 0 mm
06:34 -12.5 °C -12.2 °C 34980.8 hPa Calm   8.9 km/h 98 % 0 mm
06:36 -12.5 °C -12.2 °C 34980.8 hPa Calm     98 % 0 mm
06:41 -12.5 °C -12.2 °C 34980.8 hPa Calm     98 % 0 mm
06:46 -12.5 °C -12.2 °C 34980.8 hPa West 2.9 km/h 6.4 km/h 98 % 0 mm
06:47 -12.5 °C -12.2 °C 34980.8 hPa West 2.9 km/h 6.4 km/h 98 % 0 mm
06:52 -12.5 °C -12.2 °C 34980.8 hPa Calm   14 km/h 98 % 0 mm
06:53 -12.5 °C -12.2 °C 34980.8 hPa Calm   14 km/h 98 % 0 mm
06:59 -12.5 °C -12.2 °C 34980.8 hPa Calm   8.9 km/h 98 % 0 mm
07:04 -12.5 °C -12.2 °C 34980.8 hPa Calm   5.6 km/h 98 % 0 mm
07:11 -12.5 °C -12.2 °C 34980.8 hPa Calm   8 km/h 98 % 0 mm
07:12 -12.5 °C -12.2 °C 34980.8 hPa Calm   8 km/h 98 % 0 mm
07:16 -12.6 °C -12.8 °C 34980.8 hPa Calm   8 km/h 98 % 0 mm
07:17 -12.6 °C -12.8 °C 34980.8 hPa Calm   8 km/h 98 % 0 mm
07:22 -12.6 °C -12.8 °C 34980.8 hPa Calm   4.2 km/h 98 % 0 mm
07:24 -12.6 °C -12.8 °C 34980.8 hPa Calm     98 % 0 mm
07:27 -12.6 °C -12.8 °C 34980.8 hPa Calm     98 % 0 mm
07:31 -12.6 °C -12.8 °C 34980.8 hPa Calm     98 % 0 mm
07:36 -12.6 °C -12.8 °C 34980.8 hPa Calm     98 % 0 mm
07:41 -12.6 °C -12.8 °C 35014.6 hPa Calm     98 % 0 mm
07:42 -12.6 °C -12.8 °C 35014.6 hPa Calm   2.3 km/h 98 % 0 mm
07:48 -12.6 °C -12.8 °C 35014.6 hPa West 3.4 km/h 5.1 km/h 98 % 0 mm
07:53 -12.6 °C -12.8 °C 35014.6 hPa Calm   6.4 km/h 98 % 0 mm
07:58 -12.6 °C -12.8 °C 34946.9 hPa Calm   6.4 km/h 98 % 0 mm
08:00 -12.6 °C -12.8 °C 34946.9 hPa Calm     98 % 0 mm
08:05 -12.6 °C -12.8 °C 34946.9 hPa Calm     98 % 0 mm
08:10 -12.6 °C -12.8 °C 34946.9 hPa Calm     98 % 0 mm
08:12 -12.6 °C -12.8 °C 34980.8 hPa Calm     98 % 0 mm
08:15 -12.6 °C -12.8 °C 34980.8 hPa Calm     98 % 0 mm
08:17 -12.6 °C -12.8 °C 34980.8 hPa Calm     98 % 0 mm
08:22 -12.6 °C -12.8 °C 34980.8 hPa Calm     98 % 0 mm
08:24 -12.7 °C -12.8 °C 34980.8 hPa Calm     98 % 0 mm
08:29 -12.7 °C -12.8 °C 34980.8 hPa Calm     98 % 0 mm
08:30 -12.7 °C -12.8 °C 34980.8 hPa Calm     98 % 0 mm
08:31 -12.7 °C -12.8 °C 34980.8 hPa Calm     98 % 0 mm
08:36 -12.7 °C -12.8 °C 34980.8 hPa Calm     98 % 0 mm
08:41 -12.7 °C -12.8 °C 34946.9 hPa Calm     98 % 0 mm
08:46 -12.7 °C -12.8 °C 34946.9 hPa Calm     98 % 0 mm
08:50 -12.7 °C -12.8 °C 34946.9 hPa Calm     98 % 0 mm
08:51 -12.7 °C -12.8 °C 34946.9 hPa Calm     98 % 0 mm
08:58 -12.7 °C -12.8 °C 34980.8 hPa Calm   5.1 km/h 98 % 0 mm
08:59 -12.7 °C -12.8 °C 34980.8 hPa Calm   5.1 km/h 98 % 0 mm
09:04 -12.7 °C -12.8 °C 34980.8 hPa Calm   8 km/h 98 % 0 mm
09:09 -12.7 °C -12.8 °C 34980.8 hPa Calm   8 km/h 98 % 0 mm
09:20 -12.6 °C -12.8 °C 34980.8 hPa Calm   2.9 km/h 98 % 0 mm
09:25 -12.6 °C -12.8 °C 34980.8 hPa Calm   2.9 km/h 98 % 0 mm
09:32 -12.6 °C -12.8 °C 34980.8 hPa Calm   6.4 km/h 98 % 0 mm
09:37 -12.6 °C -12.8 °C 34980.8 hPa Calm   6.4 km/h 98 % 0 mm
09:38 -12.6 °C -12.8 °C 34980.8 hPa Calm   6.4 km/h 98 % 0 mm
09:43 -12.6 °C -12.8 °C 35014.6 hPa West 2.3 km/h 2.3 km/h 98 % 0 mm
09:47 -12.6 °C -12.8 °C 35014.6 hPa Calm   8 km/h 98 % 0 mm
09:52 -12.6 °C -12.8 °C 35014.6 hPa Calm   9.3 km/h 98 % 0 mm
09:53 -12.6 °C -12.8 °C 35014.6 hPa Calm   9.3 km/h 98 % 0 mm
09:59 -12.6 °C -12.8 °C 35014.6 hPa Calm   9.3 km/h 98 % 0 mm
10:04 -12.6 °C -12.8 °C 35014.6 hPa Calm   7.6 km/h 98 % 0 mm
10:09 -12.6 °C -12.8 °C 35014.6 hPa Calm   10.3 km/h 98 % 0 mm
10:10 -12.6 °C -12.8 °C 35014.6 hPa Calm   10.3 km/h 98 % 0 mm
10:15 -12.6 °C -12.8 °C 35014.6 hPa Calm   10.3 km/h 98 % 0 mm
10:17 -12.6 °C -12.8 °C 35014.6 hPa NW 3.4 km/h 9.3 km/h 98 % 0 mm
10:22 -12.5 °C -12.2 °C 35014.6 hPa Calm   7.6 km/h 98 % 0 mm
10:30 -12.5 °C -12.2 °C 35048.5 hPa NNW 7.6 km/h 8.9 km/h 98 % 0 mm
10:32 -12.5 °C -12.2 °C 35048.5 hPa Calm   8.9 km/h 98 % 0 mm
10:38 -12.5 °C -12.2 °C 35048.5 hPa Calm   8.9 km/h 98 % 0 mm
10:41 -12.5 °C -12.2 °C 35048.5 hPa Calm     98 % 0 mm
10:46 -12.4 °C -12.2 °C 35048.5 hPa Calm     98 % 0 mm
10:49 -12.4 °C -12.2 °C 35048.5 hPa Calm     98 % 0 mm
10:54 -12.4 °C -12.2 °C 35048.5 hPa Calm     98 % 0 mm
10:55 -12.3 °C -12.2 °C 35048.5 hPa Calm     98 % 0 mm
11:00 -12.3 °C -12.2 °C 35014.6 hPa Calm     98 % 0 mm
11:02 -12.3 °C -12.2 °C 35014.6 hPa Calm     98 % 0 mm
11:07 -12.2 °C -12.2 °C 35014.6 hPa Calm     98 % 0 mm
11:10 -12.2 °C -12.2 °C 35014.6 hPa Calm     98 % 0 mm
11:19 -12.2 °C -12.2 °C 35048.5 hPa Calm     98 % 0 mm
11:24 -12.1 °C -12.2 °C 35048.5 hPa Calm     98 % 0 mm
11:25 -12.1 °C -12.2 °C 35048.5 hPa WNW 8 km/h 8 km/h 98 % 0 mm
11:30 -12.1 °C -12.2 °C 35048.5 hPa Calm   8 km/h 98 % 0 mm
11:40 -12 °C -12.2 °C 35048.5 hPa Calm   9.8 km/h 98 % 0 mm
11:42 -12 °C -12.2 °C 35048.5 hPa Calm   9.8 km/h 98 % 0 mm
11:47 -12 °C -12.2 °C 35048.5 hPa North 5.6 km/h 10.3 km/h 98 % 0 mm
11:49 -12.1 °C -12.2 °C 35048.5 hPa Calm   10.3 km/h 98 % 0 mm
11:53 -12.1 °C -12.2 °C 35048.5 hPa Calm   14.5 km/h 98 % 0 mm
11:58 -12 °C -12.2 °C 35048.5 hPa Calm   14.5 km/h 98 % 0 mm
12:00 -12 °C -12.2 °C 35048.5 hPa Calm   14.5 km/h 98 % 0 mm
12:05 -12 °C -12.2 °C 35048.5 hPa North 2.9 km/h 15 km/h 98 % 0 mm
12:07 -12 °C -12.2 °C 35048.5 hPa Calm   15 km/h 98 % 0 mm
12:11 -12 °C -12.2 °C 35048.5 hPa Calm   15 km/h 98 % 0 mm
12:16 -11.9 °C -11.7 °C 35048.5 hPa NNW 2.3 km/h 14 km/h 98 % 0 mm
12:18 -11.9 °C -11.7 °C 35048.5 hPa Calm   14 km/h 98 % 0 mm
12:23 -11.9 °C -11.7 °C 35048.5 hPa Calm   14 km/h 98 % 0 mm
12:28 -11.9 °C -11.7 °C 35048.5 hPa WNW 6.9 km/h 12.2 km/h 98 % 0 mm
12:29 -11.9 °C -11.7 °C 35048.5 hPa Calm   12.2 km/h 98 % 0 mm
12:34 -11.9 °C -11.7 °C 35048.5 hPa NNW 2.9 km/h 9.8 km/h 98 % 0 mm
12:38 -11.9 °C -11.7 °C 35048.5 hPa Calm   9.8 km/h 98 % 0 mm
12:43 -11.9 °C -11.7 °C 35048.5 hPa NW 5.1 km/h 9.3 km/h 98 % 0 mm
12:44 -11.9 °C -11.7 °C 35048.5 hPa Calm   9.3 km/h 98 % 0 mm
12:50 -11.9 °C -11.7 °C 35048.5 hPa North 5.1 km/h 9.3 km/h 98 % 0 mm
12:53 -11.9 °C -11.7 °C 35048.5 hPa NNW 11.1 km/h 11.1 km/h 98 % 0 mm
12:59 -11.9 °C -11.7 °C 35048.5 hPa Calm   14 km/h 98 % 0 mm
13:04 -11.9 °C -11.7 °C 35048.5 hPa Calm   14 km/h 98 % 0 mm
13:05 -12 °C -12.2 °C 35048.5 hPa Calm   14 km/h 98 % 0 mm
13:08 -12 °C -12.2 °C 35048.5 hPa Calm   11.1 km/h 98 % 0 mm
13:12 -11.9 °C -11.7 °C 35048.5 hPa Calm   11.1 km/h 98 % 0 mm
13:17 -11.9 °C -11.7 °C 35048.5 hPa West 2.3 km/h 9.8 km/h 98 % 0 mm
13:18 -11.9 °C -11.7 °C 35048.5 hPa Calm   9.8 km/h 98 % 0 mm
13:23 -11.9 °C -11.7 °C 35048.5 hPa Calm   9.8 km/h 98 % 0 mm
13:31 -11.9 °C -11.7 °C 35048.5 hPa Calm   7.6 km/h 98 % 0 mm
13:39 -11.9 °C -11.7 °C 35048.5 hPa Calm   2.9 km/h 98 % 0 mm
13:45 -11.8 °C -11.7 °C 35048.5 hPa Calm     98 % 0 mm
13:50 -11.8 °C -11.7 °C 35048.5 hPa Calm     98 % 0 mm
13:53 -11.8 °C -11.7 °C 35048.5 hPa Calm   2.3 km/h 98 % 0 mm
13:58 -11.8 °C -11.7 °C 35082.3 hPa WNW 7.6 km/h 8 km/h 98 % 0 mm
13:59 -11.8 °C -11.7 °C 35082.3 hPa NNW 6.9 km/h 8 km/h 98 % 0 mm
14:02 -11.8 °C -11.7 °C 35082.3 hPa Calm   8 km/h 98 % 0 mm
14:07 -11.7 °C -11.7 °C 35082.3 hPa Calm   7.6 km/h 98 % 0 mm
14:13 -11.7 °C -11.7 °C 35048.5 hPa West 2.3 km/h 9.8 km/h 98 % 0 mm
14:18 -11.7 °C -11.7 °C 35048.5 hPa Calm   9.8 km/h 98 % 0 mm
14:22 -11.6 °C -11.7 °C 35048.5 hPa Calm   9.8 km/h 98 % 0 mm
14:27 -11.6 °C -11.7 °C 35048.5 hPa Calm   10.3 km/h 98 % 0 mm
14:28 -11.6 °C -11.7 °C 35048.5 hPa Calm   10.3 km/h 98 % 0 mm
14:32 -11.5 °C -11.7 °C 35048.5 hPa Calm   10.3 km/h 98 % 0 mm
14:37 -11.5 °C -11.7 °C 35048.5 hPa Calm   9.3 km/h 98 % 0 mm
14:38 -11.5 °C -11.7 °C 35048.5 hPa Calm   9.3 km/h 98 % 0 mm
14:42 -11.6 °C -11.7 °C 35048.5 hPa WNW 2.9 km/h 8 km/h 98 % 0 mm
14:44 -11.6 °C -11.7 °C 35048.5 hPa Calm   8 km/h 98 % 0 mm
14:49 -11.6 °C -11.7 °C 35048.5 hPa Calm   9.3 km/h 98 % 0 mm
14:50 -11.6 °C -11.7 °C 35048.5 hPa Calm   9.3 km/h 98 % 0 mm
14:55 -11.6 °C -11.7 °C 35048.5 hPa Calm   9.3 km/h 98 % 0 mm
14:56 -11.6 °C -11.7 °C 35048.5 hPa WNW 5.6 km/h 9.3 km/h 98 % 0 mm
14:59 -11.6 °C -11.7 °C 35048.5 hPa Calm   6.4 km/h 98 % 0 mm
15:04 -11.6 °C -11.7 °C 35048.5 hPa West 11.6 km/h 11.6 km/h 98 % 0 mm
15:10 -11.6 °C -11.7 °C 35048.5 hPa West 2.9 km/h 11.6 km/h 98 % 0 mm
15:12 -11.7 °C -11.7 °C 35014.6 hPa Calm   11.6 km/h 98 % 0 mm
15:17 -11.7 °C -11.7 °C 35014.6 hPa Calm   9.3 km/h 98 % 0 mm
15:19 -11.7 °C -11.7 °C 35014.6 hPa West 10.3 km/h 10.3 km/h 98 % 0 mm
15:22 -11.7 °C -11.7 °C 35014.6 hPa Calm   12.2 km/h 98 % 0 mm
15:24 -11.7 °C -11.7 °C 35014.6 hPa Calm   12.2 km/h 98 % 0 mm
15:29 -11.7 °C -11.7 °C 35014.6 hPa Calm   12.2 km/h 98 % 0 mm
15:30 -11.7 °C -11.7 °C 35014.6 hPa West 5.6 km/h 12.2 km/h 98 % 0 mm
15:36 -11.8 °C -11.7 °C 35014.6 hPa Calm   11.1 km/h 98 % 0 mm
15:39 -11.8 °C -11.7 °C 35014.6 hPa Calm   11.1 km/h 98 % 0 mm
15:41 -11.8 °C -11.7 °C 35048.5 hPa Calm   11.1 km/h 98 % 0 mm
15:46 -11.8 °C -11.7 °C 35048.5 hPa Calm   10.3 km/h 98 % 0 mm
15:50 -11.8 °C -11.7 °C 35048.5 hPa Calm   10.3 km/h 98 % 0 mm
15:51 -11.8 °C -11.7 °C 35048.5 hPa Calm   10.3 km/h 98 % 0 mm
15:56 -11.8 °C -11.7 °C 35014.6 hPa West 11.1 km/h 11.1 km/h 98 % 0 mm
15:57 -11.8 °C -11.7 °C 35014.6 hPa WSW 2.9 km/h 11.1 km/h 98 % 0 mm
15:59 -11.8 °C -11.7 °C 35014.6 hPa Calm   11.1 km/h 98 % 0 mm
16:04 -11.9 °C -11.7 °C 35014.6 hPa West 11.1 km/h 12.7 km/h 98 % 0 mm
16:06 -11.9 °C -11.7 °C 35014.6 hPa WSW 6.9 km/h 12.7 km/h 98 % 0 mm
16:08 -11.9 °C -11.7 °C 35014.6 hPa WSW 5.6 km/h 12.7 km/h 98 % 0 mm
16:12 -11.9 °C -11.7 °C 35014.6 hPa Calm   12.7 km/h 98 % 0 mm
16:17 -11.9 °C -11.7 °C 35014.6 hPa Calm   7.6 km/h 98 % 0 mm
16:20 -11.9 °C -11.7 °C 35014.6 hPa Calm   7.6 km/h 98 % 0 mm
16:22 -11.9 °C -11.7 °C 35014.6 hPa Calm   7.6 km/h 98 % 0 mm
16:27 -11.9 °C -11.7 °C 35048.5 hPa West 2.3 km/h 8 km/h 98 % 0 mm
16:29 -11.9 °C -11.7 °C 35048.5 hPa Calm   8 km/h 98 % 0 mm
16:31 -11.9 °C -11.7 °C 35048.5 hPa Calm   8 km/h 98 % 0 mm
16:35 -11.9 °C -11.7 °C 35048.5 hPa Calm   8 km/h 98 % 0 mm
16:38 -11.9 °C -11.7 °C 35048.5 hPa Calm   2.3 km/h 98 % 0 mm
16:43 -12 °C -12.2 °C 35048.5 hPa Calm     98 % 0 mm
16:46 -12 °C -12.2 °C 35048.5 hPa Calm     98 % 0 mm
16:47 -12 °C -12.2 °C 35048.5 hPa Calm     98 % 0 mm
16:51 -12 °C -12.2 °C 35048.5 hPa Calm     98 % 0 mm
16:56 -12.1 °C -12.2 °C 35082.3 hPa Calm     98 % 0 mm
17:03 -12.1 °C -12.2 °C 35082.3 hPa Calm     98 % 0 mm
17:08 -12.1 °C -12.2 °C 35082.3 hPa Calm     98 % 0 mm
17:09 -12.1 °C -12.2 °C 35082.3 hPa Calm     98 % 0 mm
17:14 -12.1 °C -12.2 °C 35048.5 hPa Calm     98 % 0 mm
17:21 -12.2 °C -12.2 °C 35048.5 hPa Calm     98 % 0 mm
17:26 -12.1 °C -12.2 °C 35048.5 hPa Calm     98 % 0 mm
17:27 -12.1 °C -12.2 °C 35048.5 hPa Calm     98 % 0 mm
17:28 -12.1 °C -12.2 °C 35048.5 hPa Calm     98 % 0 mm
17:33 -12.1 °C -12.2 °C 35048.5 hPa Calm     98 % 0 mm
17:34 -12.1 °C -12.2 °C 35048.5 hPa Calm     98 % 0 mm
17:39 -12.2 °C -12.2 °C 35048.5 hPa Calm     98 % 0 mm
17:40 -12.2 °C -12.2 °C 35048.5 hPa Calm     98 % 0 mm
17:45 -12.2 °C -12.2 °C 35048.5 hPa Calm     98 % 0 mm
17:50 -12.2 °C -12.2 °C 35048.5 hPa Calm     98 % 0 mm
17:56 -12.2 °C -12.2 °C 35048.5 hPa Calm     98 % 0 mm
17:57 -12.2 °C -12.2 °C 35048.5 hPa Calm     98 % 0 mm
18:02 -12.2 °C -12.2 °C 35048.5 hPa Calm     98 % 0 mm
18:03 -12.2 °C -12.2 °C 35048.5 hPa Calm     98 % 0 mm
18:08 -12.2 °C -12.2 °C 35048.5 hPa Calm     98 % 0 mm
18:13 -12.2 °C -12.2 °C 35048.5 hPa Calm     98 % 0 mm
18:16 -12.2 °C -12.2 °C 35048.5 hPa Calm     98 % 0 mm
18:21 -12.2 °C -12.2 °C 35048.5 hPa Calm     98 % 0 mm
18:27 -12.3 °C -12.2 °C 35048.5 hPa Calm     98 % 0 mm
18:29 -12.3 °C -12.2 °C 35048.5 hPa Calm     98 % 0 mm
18:39 -12.3 °C -12.2 °C 35048.5 hPa SSE 2.3 km/h 4.2 km/h 98 % 0 mm
18:44 -12.3 °C -12.2 °C 35048.5 hPa Calm   6.4 km/h 98 % 0 mm
18:49 -12.2 °C -12.2 °C 35048.5 hPa Calm   6.4 km/h 98 % 0 mm
18:54 -12.2 °C -12.2 °C 35048.5 hPa West 6.9 km/h 6.9 km/h 98 % 0 mm
18:55 -12.2 °C -12.2 °C 35048.5 hPa Calm   6.9 km/h 98 % 0 mm
18:56 -12.2 °C -12.2 °C 35048.5 hPa Calm   6.9 km/h 98 % 0 mm
19:01 -12.2 °C -12.2 °C 35048.5 hPa Calm   6.9 km/h 98 % 0 mm
19:05 -12.3 °C -12.2 °C 35048.5 hPa Calm   3.4 km/h 98 % 0 mm
19:13 -12.3 °C -12.2 °C 35048.5 hPa Calm     98 % 0 mm
19:14 -12.3 °C -12.2 °C 35048.5 hPa Calm     98 % 0 mm
19:19 -12.3 °C -12.2 °C 35048.5 hPa Calm     98 % 0 mm
19:24 -12.3 °C -12.2 °C 35048.5 hPa Calm     98 % 0 mm
19:26 -12.3 °C -12.2 °C 35082.3 hPa Calm     98 % 0 mm
19:33 -12.3 °C -12.2 °C 35082.3 hPa Calm     98 % 0 mm
19:38 -12.3 °C -12.2 °C 35082.3 hPa Calm     98 % 0 mm
19:40 -12.3 °C -12.2 °C 35082.3 hPa Calm     98 % 0 mm
19:48 -12.3 °C -12.2 °C 35082.3 hPa Calm     98 % 0 mm
19:53 -12.4 °C -12.2 °C 35082.3 hPa Calm     98 % 0 mm
19:58 -12.4 °C -12.2 °C 35048.5 hPa Calm     98 % 0 mm
20:00 -12.4 °C -12.2 °C 35048.5 hPa Calm     98 % 0 mm
20:03 -12.4 °C -12.2 °C 35048.5 hPa Calm     98 % 0 mm
20:08 -12.4 °C -12.2 °C 35048.5 hPa Calm     98 % 0 mm
20:09 -12.4 °C -12.2 °C 35048.5 hPa Calm     98 % 0 mm
20:14 -12.4 °C -12.2 °C 35082.3 hPa Calm     98 % 0 mm
20:16 -12.4 °C -12.2 °C 35082.3 hPa Calm     98 % 0 mm
20:19 -12.4 °C -12.2 °C 35082.3 hPa Calm     98 % 0 mm
20:22 -12.4 °C -12.2 °C 35082.3 hPa Calm     98 % 0 mm
20:27 -12.4 °C -12.2 °C 35082.3 hPa Calm     98 % 0 mm
20:28 -12.4 °C -12.2 °C 35082.3 hPa Calm     98 % 0 mm
20:33 -12.4 °C -12.2 °C 35082.3 hPa Calm     98 % 0 mm
20:41 -12.4 °C -12.2 °C 35082.3 hPa Calm     98 % 0 mm
20:42 -12.4 °C -12.2 °C 35082.3 hPa Calm     98 % 0 mm
20:47 -12.5 °C -12.2 °C 35082.3 hPa Calm     98 % 0 mm
20:48 -12.5 °C -12.2 °C 35082.3 hPa Calm     98 % 0 mm
20:49 -12.5 °C -12.2 °C 35082.3 hPa Calm     98 % 0 mm
20:59 -12.5 °C -12.2 °C 35116.2 hPa Calm     98 % 0 mm
21:04 -12.5 °C -12.2 °C 35116.2 hPa Calm     98 % 0 mm
21:06 -12.5 °C -12.2 °C 35116.2 hPa Calm     98 % 0 mm
21:11 -12.5 °C -12.2 °C 35116.2 hPa Calm     98 % 0 mm
21:16 -12.4 °C -12.2 °C 35116.2 hPa Calm     98 % 0 mm
21:18 -12.4 °C -12.2 °C 35116.2 hPa Calm     98 % 0 mm
21:22 -12.4 °C -12.2 °C 35116.2 hPa Calm     98 % 0 mm
21:25 -12.4 °C -12.2 °C 35116.2 hPa Calm     98 % 0 mm
21:29 -12.4 °C -12.2 °C 35116.2 hPa Calm     98 % 0 mm
21:34 -12.4 °C -12.2 °C 35116.2 hPa Calm     98 % 0 mm
21:39 -12.4 °C -12.2 °C 35116.2 hPa Calm     98 % 0 mm
21:41 -12.4 °C -12.2 °C 35116.2 hPa Calm     98 % 0 mm
21:46 -12.4 °C -12.2 °C 35116.2 hPa Calm     98 % 0 mm
21:49 -12.4 °C -12.2 °C 35116.2 hPa Calm     98 % 0 mm
21:50 -12.4 °C -12.2 °C 35116.2 hPa Calm     98 % 0 mm
21:55 -12.5 °C -12.2 °C 35116.2 hPa Calm     98 % 0 mm
21:58 -12.5 °C -12.2 °C 35116.2 hPa Calm     98 % 0 mm
22:01 -12.5 °C -12.2 °C 35116.2 hPa Calm     98 % 0 mm
22:06 -12.6 °C -12.8 °C 35116.2 hPa Calm     98 % 0 mm
22:07 -12.6 °C -12.8 °C 35116.2 hPa Calm     98 % 0 mm
22:14 -12.6 °C -12.8 °C 35116.2 hPa Calm     98 % 0 mm
22:19 -12.6 °C -12.8 °C 35116.2 hPa Calm     98 % 0 mm
22:21 -12.6 °C -12.8 °C 35116.2 hPa Calm     98 % 0 mm
22:26 -12.6 °C -12.8 °C 35116.2 hPa Calm     98 % 0 mm
22:27 -12.6 °C -12.8 °C 35116.2 hPa Calm     98 % 0 mm
22:32 -12.6 °C -12.8 °C 35116.2 hPa Calm     98 % 0 mm
22:34 -12.6 °C -12.8 °C 35116.2 hPa Calm     98 % 0 mm
22:43 -12.6 °C -12.8 °C 35116.2 hPa Calm     98 % 0 mm
22:49 -12.6 °C -12.8 °C 35116.2 hPa Calm     98 % 0 mm
22:51 -12.6 °C -12.8 °C 35116.2 hPa Calm     98 % 0 mm
22:56 -12.6 °C -12.8 °C 35116.2 hPa Calm     98 % 0 mm
23:00 -12.6 °C -12.8 °C 35116.2 hPa Calm     98 % 0 mm
23:01 -12.6 °C -12.8 °C 35116.2 hPa Calm     98 % 0 mm
23:06 -12.6 °C -12.8 °C 35116.2 hPa Calm     98 % 0 mm
23:07 -12.6 °C -12.8 °C 35116.2 hPa Calm     98 % 0 mm
23:12 -12.7 °C -12.8 °C 35116.2 hPa Calm     98 % 0 mm
23:18 -12.7 °C -12.8 °C 35116.2 hPa Calm     98 % 0 mm
23:19 -12.7 °C -12.8 °C 35116.2 hPa Calm     98 % 0 mm
23:26 -12.7 °C -12.8 °C 35116.2 hPa Calm     98 % 0 mm
23:29 -12.7 °C -12.8 °C 35116.2 hPa Calm     98 % 0 mm
23:32 -12.7 °C -12.8 °C 35116.2 hPa Calm     98 % 0 mm
23:34 -12.7 °C -12.8 °C 35116.2 hPa Calm     98 % 0 mm
23:39 -12.7 °C -12.8 °C 35116.2 hPa Calm     98 % 0 mm
23:49 -12.8 °C -12.8 °C 35116.2 hPa Calm   5.1 km/h 98 % 0 mm
23:51 -12.8 °C -12.8 °C 35116.2 hPa Calm   5.1 km/h 98 % 0 mm
23:56 -12.7 °C -12.8 °C 35116.2 hPa Calm   5.1 km/h 98 % 0 mm
Le Gheer Warneton
Courtoisie de Weather Underground - 2.75 mb

Mise a jour : 24/02/2018 15:09:11
Généré par Cumulus 1.9.4 (1099)